Location: Palam�s
(41.8500°N, 3.1330°E)
Time: 09:07:56
(UTC+02:00)

ISS - Visible Passes

Search period start: 25 April 2024 00:00
Search period end: 05 May 2024 00:00
Orbit: 411 x 417 km, 51.6° (Epoch: 25 April)

Date Brightness Start Highest point End Pass type
(mag) Time Alt. Az. Time Alt. Az. Time Alt. Az.
25 Apr -3.0 04:42:35 47° ESE 04:42:35 47° ESE 04:45:21 10° ENE visible
25 Apr -2.2 06:16:04 10° W 06:18:57 27° NNW 06:21:51 10° NE visible
26 Apr -0.9 03:55:11 15° E 03:55:11 15° E 03:55:56 10° ENE visible
26 Apr -2.8 05:28:01 22° W 05:29:37 37° NNW 05:32:45 10° NE visible
27 Apr -3.3 04:40:30 57° N 04:40:30 57° N 04:43:33 10° NE visible
27 Apr -1.5 06:15:04 10° WNW 06:17:27 18° NNW 06:19:51 10° NNE visible
28 Apr -1.4 03:52:52 22° ENE 03:52:52 22° ENE 03:54:13 10° ENE visible
28 Apr -1.8 05:25:41 13° WNW 05:27:53 22° NNW 05:30:34 10° NE visible
29 Apr -2.3 04:37:57 28° NW 04:38:17 29° NNW 04:41:15 10° NE visible
29 Apr -1.1 06:13:41 10° NW 06:15:45 15° N 06:17:48 10° NE visible
30 Apr -1.5 03:50:08 25° NNE 03:50:08 25° NNE 03:51:51 10° NE visible
30 Apr -1.2 05:23:46 10° NW 05:25:59 16° N 05:28:12 10° NNE visible
01 May -0.4 03:02:12 11° NE 03:02:12 11° NE 03:02:22 10° NE visible
01 May -1.5 04:35:01 16° NW 04:36:10 19° NNW 04:38:39 10° NE visible
01 May -1.0 06:11:38 10° NNW 06:13:46 16° N 06:15:54 10° NE visible
02 May -1.4 03:47:00 22° N 03:47:00 22° N 03:49:06 10° NE visible
02 May -1.0 05:21:49 10° NW 05:23:51 15° N 05:25:53 10° NE visible
03 May -0.6 02:58:54 14° NE 02:58:54 14° NE 02:59:30 10° NE visible
03 May -1.0 04:31:46 10° NW 04:33:51 15° N 04:35:57 10° NE visible
03 May -1.2 06:08:52 10° NW 06:11:26 20° NNE 06:13:59 10° ENE visible
04 May -1.2 03:43:30 17° NNW 03:43:49 17° N 03:46:07 10° NNE visible
04 May -0.9 05:19:08 10° NNW 05:21:25 17° N 05:23:42 10° NE visible
